STARLINK-3228 (49731 NORAD) Tracking and Keplerian Element Data
This shows tracking and keplerian element data for the satellite.
Feedback or suggestion? Click here.
Element | Value |
Catalog | 49731 |
Name | STARLINK-3228 |
Epoch Orbit | 130 |
Epoch Day | 140.58334491 |
Epoch Year | 2022 |
RAAN | 275.0574 |
Inclination | 53.2172 |
Eccentricity | 0.0002305 |
Argument of Perigee | 23.6805 |
Mean Anonmoly | 317.8808 |
Mean Motion | 15.08642099 |
Decay Rate | 0.00297604 |
L1 | 1 49731U 21115H 22140.58334491 .00297604 00000+0 18043-1 0 9994 |
L2 | 2 49731 53.2172 275.0574 0002305 23.6805 317.8808 15.08642099 1303 |
Live tracking and technical data element details for STARLINK-3228 (NORAD 49731). STARLINK-3228 can be tracked NOW for your location showing map with azimuth and elevation plus other details from your city location.
Track the satellite on the map from your city or location and see movement details for azimuth, elevation, latitude, longitude, range, height, and movement on the map or in text.
IsCatalogInMostPopularTable: catalog: 49731, numindb: 21
Update: records affected: 1
GetName: 49731 STARLINK-3228
Hit Count: updated at: Mon, 23 May 2022 20:04:13 GMT